Time,TemperatureF,DewpointF,PressureIn,WindDirection,WindDirectionDegrees,WindSpeedMPH,WindSpeedGustMPH,Humidity,HourlyPrecipIn,Conditions,Clouds,dailyrainin,SolarRadiationWatts/m^2,SoftwareType,DateUTC
2013-09-01 00:01:00,68.8,66.1,29.81,ESE,116,0.0,0.0,91,0.00,,CLR,0.00,0.00,VWS V14.01,2013-09-01 04:01:00,
2013-09-01 00:02:00,68.8,66.1,29.82,ESE,116,0.0,0.0,91,0.00,,CLR,0.00,0.00,VWS V14.01,2013-09-01 04:02:00,
2013-09-01 00:03:00,68.8,66.1,29.82,ESE,116,0.0,0.0,91,0.00,,CLR,0.00,0.00,VWS V14.01,2013-09-01 04:03:00,
2013-09-01 00:05:00,68.8,66.1,29.82,ESE,116,0.0,0.0,91,0.00,,CLR,0.00,0.00,VWS V14.01,2013-09-01 04:05:00,
2013-09-01 00:10:00,68.6,65.9,29.82,SSW,199,0.0,0.0,91,0.00,,CLR,0.00,0.00,VWS V14.01,2013-09-01 04:10:00,
2013-09-01 00:15:00,68.6,65.9,29.82,SSW,199,0.0,0.0,91,0.00,,CLR,0.00,0.00,VWS V14.01,2013-09-01 04:15:00,
2013-09-01 00:20:00,68.4,65.7,29.82,SSW,199,0.0,0.0,91,0.00,,CLR,0.00,0.00,VWS V14.01,2013-09-01 04:20:00,
2013-09-01 00:26:00,68.4,65.7,29.82,SSW,199,0.0,0.0,91,0.00,,CLR,0.00,0.00,VWS V14.01,2013-09-01 04:26:00,
2013-09-01 00:31:00,68.4,66.0,29.82,SSW,199,0.0,0.0,92,0.00,,CLR,0.00,0.00,VWS V14.01,2013-09-01 04:31:00,
2013-09-01 00:32:00,68.4,66.0,29.82,SSW,199,0.0,0.0,92,0.00,,CLR,0.00,0.00,VWS V14.01,2013-09-01 04:32:00,
2013-09-01 00:37:00,68.4,66.0,29.82,SSW,199,0.0,0.0,92,0.00,,CLR,0.00,0.00,VWS V14.01,2013-09-01 04:37:00,
2013-09-01 00:42:00,68.3,65.6,29.82,SSW,198,0.0,1.0,91,0.00,,CLR,0.00,0.00,VWS V14.01,2013-09-01 04:42:00,
2013-09-01 00:47:00,68.1,65.7,29.81,SSW,199,0.0,0.0,92,0.00,,CLR,0.00,0.00,VWS V14.01,2013-09-01 04:47:00,
2013-09-01 00:52:00,68.3,65.9,29.81,SW,229,0.0,0.0,92,0.00,,CLR,0.00,0.00,VWS V14.01,2013-09-01 04:52:00,
2013-09-01 00:57:00,68.1,65.7,29.81,SW,229,0.0,0.0,92,0.00,,CLR,0.00,0.00,VWS V14.01,2013-09-01 04:57:00,
2013-09-01 01:02:00,68.1,65.7,29.81,SW,229,0.0,0.0,92,0.00,,CLR,0.00,0.00,VWS V14.01,2013-09-01 05:02:00,
2013-09-01 01:08:00,68.3,65.9,29.81,SW,229,0.0,0.0,92,0.00,,,0.00,0.00,VWS V14.01,2013-09-01 05:08:00,
2013-09-01 01:13:00,68.4,66.0,29.81,SW,229,0.0,0.0,92,0.00,,,0.00,0.00,VWS V14.01,2013-09-01 05:13:00,
2013-09-01 01:18:00,68.4,66.0,29.81,SW,229,0.0,0.0,92,0.00,,,0.00,0.00,VWS V14.01,2013-09-01 05:18:00,
2013-09-01 01:23:00,68.3,65.9,29.81,SW,229,0.0,0.0,92,0.00,,,0.00,0.00,VWS V14.01,2013-09-01 05:23:00,
2013-09-01 01:28:00,68.3,65.9,29.81,SW,229,0.0,0.0,92,0.00,,,0.00,0.00,VWS V14.01,2013-09-01 05:28:00,
2013-09-01 01:33:00,68.3,65.9,29.81,SW,229,0.0,0.0,92,0.00,,,0.00,0.00,VWS V14.01,2013-09-01 05:33:00,
2013-09-01 01:38:00,68.1,65.7,29.81,SW,229,0.0,0.0,92,0.00,,,0.00,0.00,VWS V14.01,2013-09-01 05:38:00,
2013-09-01 01:43:00,67.9,65.5,29.81,SW,229,0.0,0.0,92,0.00,,,0.00,0.00,VWS V14.01,2013-09-01 05:43:00,
2013-09-01 01:48:00,67.9,65.5,29.80,SW,229,0.0,0.0,92,0.00,,,0.00,0.00,VWS V14.01,2013-09-01 05:48:00,
2013-09-01 01:53:00,67.8,65.4,29.80,SW,229,0.0,0.0,92,0.00,,,0.00,0.00,VWS V14.01,2013-09-01 05:53:00,
2013-09-01 01:58:00,67.6,65.2,29.80,SW,229,0.0,0.0,92,0.00,,,0.00,0.00,VWS V14.01,2013-09-01 05:58:00,
2013-09-01 02:03:00,67.6,65.2,29.80,SW,229,0.0,0.0,92,0.00,,,0.00,0.00,VWS V14.01,2013-09-01 06:03:00,
2013-09-01 02:08:00,67.4,65.0,29.80,SW,216,0.0,2.0,92,0.00,,,0.00,0.00,VWS V14.01,2013-09-01 06:08:00,
2013-09-01 02:14:00,67.3,64.9,29.80,SW,216,0.0,0.0,92,0.00,,,0.00,0.00,VWS V14.01,2013-09-01 06:14:00,
2013-09-01 02:19:00,67.3,64.9,29.80,SW,216,0.0,0.0,92,0.00,,,0.00,0.00,VWS V14.01,2013-09-01 06:19:00,
2013-09-01 02:24:00,67.1,65.0,29.80,SW,216,0.0,0.0,93,0.00,,,0.00,0.00,VWS V14.01,2013-09-01 06:24:00,
2013-09-01 02:29:00,67.1,65.0,29.80,SW,216,0.0,0.0,93,0.00,,,0.00,0.00,VWS V14.01,2013-09-01 06:29:00,
2013-09-01 02:34:00,66.9,64.8,29.79,SW,216,0.0,0.0,93,0.00,,,0.00,0.00,VWS V14.01,2013-09-01 06:34:00,
2013-09-01 02:39:00,66.8,64.7,29.79,SW,216,0.0,0.0,93,0.00,,,0.00,0.00,VWS V14.01,2013-09-01 06:39:00,
2013-09-01 02:44:00,66.8,64.7,29.79,SW,216,0.0,0.0,93,0.00,,,0.00,0.00,VWS V14.01,2013-09-01 06:44:00,
2013-09-01 02:49:00,66.8,64.7,29.79,SW,216,0.0,0.0,93,0.00,,,0.00,0.00,VWS V14.01,2013-09-01 06:49:00,
2013-09-01 02:54:00,66.6,64.5,29.79,SW,216,0.0,0.0,93,0.00,,,0.00,0.00,VWS V14.01,2013-09-01 06:54:00,
2013-09-01 02:59:00,66.4,64.6,29.79,SW,216,0.0,0.0,94,0.00,,,0.00,0.00,VWS V14.01,2013-09-01 06:59:00,
2013-09-01 03:04:00,66.4,64.6,29.80,SW,216,0.0,0.0,94,0.00,,,0.00,0.00,VWS V14.01,2013-09-01 07:04:00,
2013-09-01 03:09:00,66.4,64.6,29.80,SW,216,0.0,0.0,94,0.00,,,0.00,0.00,VWS V14.01,2013-09-01 07:09:00,
2013-09-01 03:14:00,66.3,64.5,29.80,SW,216,0.0,0.0,94,0.00,,,0.00,0.00,VWS V14.01,2013-09-01 07:14:00,
2013-09-01 03:19:00,66.3,64.5,29.79,SW,216,0.0,0.0,94,0.00,,,0.00,0.00,VWS V14.01,2013-09-01 07:19:00,
2013-09-01 03:25:00,66.3,64.5,29.79,SW,216,0.0,0.0,94,0.00,,,0.00,0.00,VWS V14.01,2013-09-01 07:25:00,
2013-09-01 03:30:00,66.1,64.3,29.79,SW,216,0.0,0.0,94,0.00,,,0.00,0.00,VWS V14.01,2013-09-01 07:30:00,
2013-09-01 03:35:00,66.1,64.3,29.79,SW,216,0.0,0.0,94,0.00,,,0.00,0.00,VWS V14.01,2013-09-01 07:35:00,
2013-09-01 03:40:00,66.1,64.3,29.79,SW,216,0.0,0.0,94,0.00,,,0.00,0.00,VWS V14.01,2013-09-01 07:40:00,
2013-09-01 03:45:00,65.9,64.4,29.79,SW,216,0.0,0.0,95,0.00,,,0.00,0.00,VWS V14.01,2013-09-01 07:45:00,
2013-09-01 03:50:00,65.9,64.4,29.78,SW,216,0.0,0.0,95,0.00,,,0.00,0.00,VWS V14.01,2013-09-01 07:50:00,
2013-09-01 03:55:00,65.9,64.4,29.78,SW,216,0.0,0.0,95,0.00,,,0.00,0.00,VWS V14.01,2013-09-01 07:55:00,
2013-09-01 04:00:00,65.8,64.3,29.78,SW,216,0.0,0.0,95,0.00,,,0.00,0.00,VWS V14.01,2013-09-01 08:00:00,
2013-09-01 04:05:00,65.8,64.3,29.79,SW,216,0.0,0.0,95,0.00,,,0.00,0.00,VWS V14.01,2013-09-01 08:05:00,
2013-09-01 04:10:00,65.6,64.1,29.79,SW,216,0.0,0.0,95,0.00,,,0.00,0.00,VWS V14.01,2013-09-01 08:10:00,
2013-09-01 04:15:00,65.6,64.1,29.79,SW,216,0.0,0.0,95,0.00,,,0.00,0.00,VWS V14.01,2013-09-01 08:15:00,
2013-09-01 04:20:00,65.4,63.9,29.78,SW,216,0.0,0.0,95,0.00,,,0.00,0.00,VWS V14.01,2013-09-01 08:20:00,
2013-09-01 04:25:00,65.4,63.9,29.78,SW,216,0.0,0.0,95,0.00,,,0.00,0.00,VWS V14.01,2013-09-01 08:25:00,
2013-09-01 04:31:00,65.3,63.8,29.78,SW,216,0.0,0.0,95,0.00,,,0.00,0.00,VWS V14.01,2013-09-01 08:31:00,
2013-09-01 04:36:00,65.3,63.8,29.78,SW,216,0.0,0.0,95,0.00,,,0.00,0.00,VWS V14.01,2013-09-01 08:36:00,
2013-09-01 04:41:00,65.1,63.6,29.78,SW,216,0.0,0.0,95,0.00,,,0.00,0.00,VWS V14.01,2013-09-01 08:41:00,
2013-09-01 04:46:00,65.0,63.5,29.78,SW,216,0.0,0.0,95,0.00,,,0.00,0.00,VWS V14.01,2013-09-01 08:46:00,
2013-09-01 04:51:00,65.0,63.5,29.78,SW,216,0.0,0.0,95,0.00,,,0.00,0.00,VWS V14.01,2013-09-01 08:51:00,
2013-09-01 04:56:00,64.8,63.3,29.78,SW,216,0.0,0.0,95,0.00,,,0.00,0.00,VWS V14.01,2013-09-01 08:56:00,
2013-09-01 05:01:00,64.8,63.6,29.78,SW,216,0.0,0.0,96,0.00,,,0.00,0.00,VWS V14.01,2013-09-01 09:01:00,
2013-09-01 05:06:00,64.6,63.4,29.79,SW,216,0.0,0.0,96,0.00,,,0.00,0.00,VWS V14.01,2013-09-01 09:06:00,
2013-09-01 05:11:00,64.6,63.4,29.79,SW,216,0.0,0.0,96,0.00,,,0.00,0.00,VWS V14.01,2013-09-01 09:11:00,
2013-09-01 05:16:00,64.5,63.3,29.79,SW,216,0.0,0.0,96,0.00,,,0.00,0.00,VWS V14.01,2013-09-01 09:16:00,
2013-09-01 05:21:00,64.5,63.3,29.80,SW,216,0.0,0.0,96,0.00,,,0.00,0.00,VWS V14.01,2013-09-01 09:21:00,
2013-09-01 05:26:00,64.5,63.3,29.80,SW,216,0.0,0.0,96,0.00,,,0.00,0.00,VWS V14.01,2013-09-01 09:26:00,
2013-09-01 05:31:00,64.5,63.3,29.80,SW,216,0.0,0.0,96,0.00,,,0.00,0.00,VWS V14.01,2013-09-01 09:31:00,
2013-09-01 05:37:00,64.5,63.3,29.80,SW,216,0.0,0.0,96,0.00,,,0.00,0.00,VWS V14.01,2013-09-01 09:37:00,
2013-09-01 05:42:00,64.5,63.3,29.80,SW,216,0.0,0.0,96,0.00,,,0.00,0.00,VWS V14.01,2013-09-01 09:42:00,
2013-09-01 05:47:00,64.3,63.1,29.80,SW,216,0.0,0.0,96,0.00,,,0.00,0.00,VWS V14.01,2013-09-01 09:47:00,
2013-09-01 05:52:00,64.3,63.1,29.81,SW,216,0.0,0.0,96,0.00,,,0.00,0.00,VWS V14.01,2013-09-01 09:52:00,
2013-09-01 05:57:00,64.2,63.0,29.81,SW,216,0.0,0.0,96,0.00,,,0.00,0.00,VWS V14.01,2013-09-01 09:57:00,
2013-09-01 06:02:00,64.2,63.0,29.81,SW,216,0.0,0.0,96,0.00,,,0.00,0.00,VWS V14.01,2013-09-01 10:02:00,
2013-09-01 06:07:00,64.2,63.0,29.81,SW,216,0.0,0.0,96,0.00,,,0.00,0.00,VWS V14.01,2013-09-01 10:07:00,
2013-09-01 06:12:00,64.0,63.1,29.81,SW,216,0.0,0.0,97,0.00,,,0.00,0.00,VWS V14.01,2013-09-01 10:12:00,
2013-09-01 06:17:00,64.0,62.8,29.82,SW,216,0.0,0.0,96,0.00,,,0.00,0.00,VWS V14.01,2013-09-01 10:17:00,
2013-09-01 06:22:00,64.0,63.1,29.82,SW,216,0.0,0.0,97,0.00,,,0.00,0.00,VWS V14.01,2013-09-01 10:22:00,
2013-09-01 06:27:00,64.0,63.1,29.82,SW,216,0.0,0.0,97,0.00,,,0.00,0.00,VWS V14.01,2013-09-01 10:27:00,
2013-09-01 06:32:00,64.0,63.1,29.82,SW,216,0.0,0.0,97,0.00,,,0.00,0.00,VWS V14.01,2013-09-01 10:32:00,
2013-09-01 06:37:00,64.2,63.3,29.82,SW,216,0.0,0.0,97,0.00,,,0.00,0.00,VWS V14.01,2013-09-01 10:37:00,
2013-09-01 06:43:00,64.2,63.3,29.82,SW,216,0.0,0.0,97,0.00,,,0.00,5.00,VWS V14.01,2013-09-01 10:43:00,
2013-09-01 06:48:00,64.2,63.3,29.83,SW,216,0.0,0.0,97,0.00,,,0.00,7.00,VWS V14.01,2013-09-01 10:48:00,
2013-09-01 06:53:00,64.2,63.3,29.83,SW,216,0.0,0.0,97,0.00,,,0.00,9.00,VWS V14.01,2013-09-01 10:53:00,
2013-09-01 06:58:00,64.3,63.4,29.83,SW,216,0.0,0.0,97,0.00,,,0.00,19.00,VWS V14.01,2013-09-01 10:58:00,
2013-09-01 07:03:00,64.5,63.6,29.82,SSW,196,0.0,3.0,97,0.00,,,0.00,25.00,VWS V14.01,2013-09-01 11:03:00,
2013-09-01 07:08:00,64.5,63.6,29.82,SSW,196,0.0,0.0,97,0.00,,,0.00,32.00,VWS V14.01,2013-09-01 11:08:00,
2013-09-01 07:13:00,64.3,63.4,29.82,SSW,196,0.0,0.0,97,0.00,,,0.00,39.00,VWS V14.01,2013-09-01 11:13:00,
2013-09-01 07:18:00,64.3,63.4,29.83,West,275,0.0,0.0,97,0.00,,,0.00,63.00,VWS V14.01,2013-09-01 11:18:00,
2013-09-01 07:23:00,64.5,63.6,29.83,West,272,0.0,0.0,97,0.00,,,0.00,70.00,VWS V14.01,2013-09-01 11:23:00,
2013-09-01 07:28:00,64.5,63.6,29.83,West,263,0.0,1.0,97,0.00,,,0.00,77.00,VWS V14.01,2013-09-01 11:28:00,
2013-09-01 07:33:00,64.5,63.6,29.83,West,263,0.0,0.0,97,0.00,,,0.00,79.00,VWS V14.01,2013-09-01 11:33:00,
2013-09-01 07:38:00,64.6,63.7,29.83,West,263,0.0,1.0,97,0.00,,,0.00,67.00,VWS V14.01,2013-09-01 11:38:00,
2013-09-01 07:44:00,64.8,63.9,29.83,West,263,3.0,3.0,97,0.00,,,0.00,62.00,VWS V14.01,2013-09-01 11:44:00,
2013-09-01 07:49:00,65.0,64.1,29.83,West,268,0.0,3.0,97,0.00,,,0.00,42.00,VWS V14.01,2013-09-01 11:49:00,
2013-09-01 07:54:00,65.3,64.7,29.83,WSW,253,0.0,1.0,98,0.00,,,0.00,48.00,VWS V14.01,2013-09-01 11:54:00,
2013-09-01 07:59:00,65.4,64.8,29.83,WNW,282,0.0,2.0,98,0.00,,,0.00,53.00,VWS V14.01,2013-09-01 11:59:00,
2013-09-01 08:04:00,65.4,64.8,29.83,WNW,282,0.0,0.0,98,0.00,,,0.00,74.00,VWS V14.01,2013-09-01 12:04:00,
2013-09-01 08:09:00,65.6,65.0,29.83,WNW,282,0.0,0.0,98,0.00,,,0.00,100.00,VWS V14.01,2013-09-01 12:09:00,
2013-09-01 08:14:00,65.8,65.2,29.83,WNW,282,0.0,0.0,98,0.00,,,0.00,121.00,VWS V14.01,2013-09-01 12:14:00,
2013-09-01 08:19:00,65.9,65.3,29.84,WNW,282,0.0,0.0,98,0.00,,,0.00,120.00,VWS V14.01,2013-09-01 12:19:00,
2013-09-01 08:24:00,66.1,65.2,29.84,WNW,282,0.0,0.0,97,0.00,,,0.00,95.00,VWS V14.01,2013-09-01 12:24:00,
2013-09-01 08:29:00,66.3,65.7,29.84,WNW,282,0.0,0.0,98,0.01,,,0.01,63.00,VWS V14.01,2013-09-01 12:29:00,
2013-09-01 08:34:00,66.3,65.7,29.84,WNW,282,0.0,0.0,98,0.01,,,0.01,44.00,VWS V14.01,2013-09-01 12:34:00,
2013-09-01 08:39:00,66.4,65.5,29.84,WNW,282,0.0,0.0,97,0.01,,,0.01,39.00,VWS V14.01,2013-09-01 12:39:00,
2013-09-01 08:45:00,66.6,65.7,29.84,WNW,282,0.0,0.0,97,0.01,,,0.01,42.00,VWS V14.01,2013-09-01 12:45:00,
2013-09-01 08:50:00,66.6,66.0,29.84,WNW,282,0.0,0.0,98,0.01,,,0.01,42.00,VWS V14.01,2013-09-01 12:50:00,
2013-09-01 08:55:00,66.8,66.2,29.84,WNW,282,0.0,0.0,98,0.01,,,0.01,67.00,VWS V14.01,2013-09-01 12:55:00,
2013-09-01 09:00:00,66.8,65.9,29.84,WNW,282,0.0,3.0,97,0.01,,,0.01,67.00,VWS V14.01,2013-09-01 13:00:00,
2013-09-01 09:05:00,66.8,65.9,29.85,WNW,282,0.0,2.0,97,0.01,,SCT080,0.01,63.00,VWS V14.01,2013-09-01 13:05:00,
2013-09-01 09:10:00,66.6,65.7,29.85,WNW,284,0.0,2.0,97,0.01,,SCT080,0.01,67.00,VWS V14.01,2013-09-01 13:10:00,
2013-09-01 09:15:00,66.6,65.7,29.85,WNW,284,0.0,0.0,97,0.01,,SCT080,0.01,104.00,VWS V14.01,2013-09-01 13:15:00,
2013-09-01 09:20:00,66.8,65.9,29.85,WNW,282,0.0,0.0,97,0.01,,SCT080,0.01,72.00,VWS V14.01,2013-09-01 13:20:00,
2013-09-01 09:25:00,66.9,66.0,29.85,WNW,282,0.0,0.0,97,0.01,,SCT080,0.01,79.00,VWS V14.01,2013-09-01 13:25:00,
2013-09-01 09:30:00,66.9,66.0,29.85,WNW,284,0.0,0.0,97,0.01,,SCT080,0.01,97.00,VWS V14.01,2013-09-01 13:30:00,
2013-09-01 09:35:00,67.1,66.2,29.85,WNW,282,0.0,0.0,97,0.00,,SCT080,0.01,91.00,VWS V14.01,2013-09-01 13:35:00,
2013-09-01 09:40:00,67.4,66.5,29.85,West,260,0.0,3.0,97,0.00,,SCT080,0.01,62.00,VWS V14.01,2013-09-01 13:40:00,
2013-09-01 09:45:00,67.6,66.7,29.85,WNW,284,0.0,2.0,97,0.00,,SCT080,0.01,69.00,VWS V14.01,2013-09-01 13:45:00,
2013-09-01 09:51:00,67.9,67.0,29.84,SSW,203,0.0,2.0,97,0.00,,SCT080,0.01,86.00,VWS V14.01,2013-09-01 13:51:00,
2013-09-01 09:56:00,68.3,67.4,29.84,West,263,0.0,3.0,97,0.00,,SCT080,0.01,91.00,VWS V14.01,2013-09-01 13:56:00,
2013-09-01 10:01:00,68.8,67.9,29.84,WSW,253,0.0,3.0,97,0.00,,SCT080,0.01,91.00,VWS V14.01,2013-09-01 14:01:00,
2013-09-01 10:06:00,69.3,68.1,29.84,WSW,254,5.0,5.0,96,0.00,,CLR,0.01,132.00,VWS V14.01,2013-09-01 14:06:00,
2013-09-01 10:11:00,69.8,68.3,29.84,West,268,2.0,5.0,95,0.00,,CLR,0.01,127.00,VWS V14.01,2013-09-01 14:11:00,
2013-09-01 10:16:00,70.1,68.0,29.84,SW,224,2.0,2.0,93,0.00,,CLR,0.01,100.00,VWS V14.01,2013-09-01 14:16:00,
2013-09-01 10:21:00,70.6,67.8,29.84,SSW,195,0.0,5.0,91,0.00,,CLR,0.01,128.00,VWS V14.01,2013-09-01 14:21:00,
2013-09-01 10:26:00,71.1,67.7,29.84,NW,315,0.0,2.0,89,0.00,,CLR,0.01,164.00,VWS V14.01,2013-09-01 14:26:00,
2013-09-01 10:31:00,71.5,67.4,29.84,NW,318,0.0,2.0,87,0.00,,CLR,0.01,204.00,VWS V14.01,2013-09-01 14:31:00,
2013-09-01 10:36:00,72.2,67.4,29.83,NW,319,0.0,2.0,85,0.00,,CLR,0.01,289.00,VWS V14.01,2013-09-01 14:36:00,
2013-09-01 10:41:00,72.7,67.6,29.83,NW,319,1.0,2.0,84,0.00,,CLR,0.01,248.00,VWS V14.01,2013-09-01 14:41:00,
2013-09-01 10:46:00,73.2,68.1,29.83,NW,319,0.0,1.0,84,0.00,,CLR,0.01,274.00,VWS V14.01,2013-09-01 14:46:00,
2013-09-01 10:51:00,73.7,67.5,29.82,NW,319,0.0,1.0,81,0.00,,CLR,0.01,362.00,VWS V14.01,2013-09-01 14:51:00,
2013-09-01 10:57:00,74.4,68.2,29.82,NNW,329,0.0,2.0,81,0.00,,CLR,0.01,348.00,VWS V14.01,2013-09-01 14:57:00,
2013-09-01 11:02:00,75.1,68.9,29.82,NNW,329,0.0,2.0,81,0.00,,CLR,0.01,648.00,VWS V14.01,2013-09-01 15:02:00,
2013-09-01 11:07:00,76.0,69.0,29.82,NNW,329,0.0,0.0,79,0.00,,CLR,0.01,802.00,VWS V14.01,2013-09-01 15:07:00,
2013-09-01 11:12:00,76.7,68.6,29.82,SSW,208,2.0,4.0,76,0.00,,CLR,0.01,776.00,VWS V14.01,2013-09-01 15:12:00,
2013-09-01 11:17:00,77.3,67.6,29.82,WNW,284,1.0,3.0,72,0.00,,CLR,0.01,282.00,VWS V14.01,2013-09-01 15:17:00,
2013-09-01 11:22:00,77.3,67.2,29.82,WNW,282,0.0,3.0,71,0.00,,CLR,0.01,338.00,VWS V14.01,2013-09-01 15:22:00,
2013-09-01 11:27:00,77.8,66.8,29.82,WNW,284,0.0,2.0,69,0.00,,CLR,0.01,347.00,VWS V14.01,2013-09-01 15:27:00,
2013-09-01 11:32:00,78.4,67.4,29.82,WNW,284,0.0,2.0,69,0.00,,CLR,0.01,371.00,VWS V14.01,2013-09-01 15:32:00,
2013-09-01 11:37:00,78.9,67.9,29.82,WNW,284,0.0,0.0,69,0.00,,CLR,0.01,500.00,VWS V14.01,2013-09-01 15:37:00,
2013-09-01 11:42:00,79.9,69.2,29.82,ESE,120,0.0,0.0,70,0.00,,CLR,0.01,776.00,VWS V14.01,2013-09-01 15:42:00,
2013-09-01 11:47:00,80.4,68.4,29.82,West,267,2.0,3.0,67,0.00,,CLR,0.01,790.00,VWS V14.01,2013-09-01 15:47:00,
2013-09-01 11:52:00,81.2,67.4,29.82,WSW,243,0.0,3.0,63,0.00,,CLR,0.01,779.00,VWS V14.01,2013-09-01 15:52:00,
2013-09-01 11:58:00,81.6,69.2,29.82,North,0,0.0,1.0,66,0.00,,CLR,0.01,792.00,VWS V14.01,2013-09-01 15:58:00,
2013-09-01 12:03:00,82.0,68.2,29.81,SSW,192,0.0,1.0,63,0.00,,CLR,0.01,825.00,VWS V14.01,2013-09-01 16:03:00,
2013-09-01 12:08:00,82.6,69.2,29.81,West,260,0.0,2.0,64,0.00,,SCT044,0.01,813.00,VWS V14.01,2013-09-01 16:08:00,
2013-09-01 12:13:00,83.0,68.2,29.81,West,270,0.0,3.0,61,0.00,,SCT044,0.01,848.00,VWS V14.01,2013-09-01 16:13:00,
2013-09-01 12:18:00,83.3,68.5,29.81,West,264,0.0,4.0,61,0.00,,SCT044,0.01,864.00,VWS V14.01,2013-09-01 16:18:00,
2013-09-01 12:23:00,83.7,67.9,29.81,West,260,0.0,4.0,59,0.00,,SCT044,0.01,896.00,VWS V14.01,2013-09-01 16:23:00,
2013-09-01 12:28:00,84.3,68.4,29.81,West,260,0.0,0.0,59,0.00,,SCT044,0.01,753.00,VWS V14.01,2013-09-01 16:28:00,
2013-09-01 12:33:00,84.7,67.8,29.80,NW,306,2.0,5.0,57,0.00,,SCT044,0.01,867.00,VWS V14.01,2013-09-01 16:33:00,
2013-09-01 12:38:00,85.1,69.2,29.80,NW,322,0.0,3.0,59,0.00,,SCT044,0.01,901.00,VWS V14.01,2013-09-01 16:38:00,
2013-09-01 12:43:00,85.3,69.8,29.80,NNW,340,0.0,0.0,60,0.00,,SCT044,0.01,941.00,VWS V14.01,2013-09-01 16:43:00,
2013-09-01 12:48:00,85.5,69.6,29.79,WSW,247,3.0,3.0,59,0.00,,SCT044,0.01,890.00,VWS V14.01,2013-09-01 16:48:00,
2013-09-01 12:53:00,85.7,70.2,29.79,SW,234,0.0,0.0,60,0.00,,SCT044,0.01,873.00,VWS V14.01,2013-09-01 16:53:00,
2013-09-01 12:58:00,86.4,67.3,29.79,WNW,298,0.0,3.0,53,0.00,,SCT044,0.01,917.00,VWS V14.01,2013-09-01 16:58:00,
2013-09-01 13:04:00,87.0,70.9,29.79,WSW,239,0.0,0.0,59,0.00,,CLR,0.01,982.00,VWS V14.01,2013-09-01 17:04:00,
2013-09-01 13:09:00,87.0,70.9,29.79,WNW,295,0.0,5.0,59,0.00,,CLR,0.01,899.00,VWS V14.01,2013-09-01 17:09:00,
2013-09-01 13:14:00,87.2,68.0,29.79,West,271,0.0,0.0,53,0.00,,CLR,0.01,633.00,VWS V14.01,2013-09-01 17:14:00,
2013-09-01 13:19:00,87.4,67.1,29.78,ENE,61,2.0,3.0,51,0.00,,CLR,0.01,980.00,VWS V14.01,2013-09-01 17:19:00,
2013-09-01 13:24:00,87.6,68.9,29.78,WNW,302,3.0,5.0,54,0.00,,CLR,0.01,1024.00,VWS V14.01,2013-09-01 17:24:00,
2013-09-01 13:29:00,87.2,68.5,29.78,NW,322,1.0,5.0,54,0.00,,CLR,0.01,674.00,VWS V14.01,2013-09-01 17:29:00,
2013-09-01 13:34:00,87.0,68.4,29.78,WNW,289,0.0,0.0,54,0.00,,CLR,0.01,447.00,VWS V14.01,2013-09-01 17:34:00,
2013-09-01 13:39:00,87.0,70.4,29.78,SW,222,1.0,1.0,58,0.00,,CLR,0.01,415.00,VWS V14.01,2013-09-01 17:39:00,
2013-09-01 13:44:00,86.8,67.1,29.78,SSE,158,0.0,0.0,52,0.00,,CLR,0.01,406.00,VWS V14.01,2013-09-01 17:44:00,
2013-09-01 13:49:00,86.8,67.6,29.78,SSW,199,0.0,1.0,53,0.00,,CLR,0.01,413.00,VWS V14.01,2013-09-01 17:49:00,
2013-09-01 13:54:00,86.8,67.6,29.78,SSW,199,0.0,0.0,53,0.00,,CLR,0.01,501.00,VWS V14.01,2013-09-01 17:54:00,
2013-09-01 13:59:00,87.0,68.9,29.78,WNW,292,0.0,2.0,55,0.00,,CLR,0.01,702.00,VWS V14.01,2013-09-01 17:59:00,
2013-09-01 14:04:00,87.2,68.0,29.78,SW,233,0.0,2.0,53,0.00,,CLR,0.01,795.00,VWS V14.01,2013-09-01 18:04:00,
2013-09-01 14:10:00,87.4,68.2,29.78,NW,316,2.0,5.0,53,0.00,,CLR,0.01,600.00,VWS V14.01,2013-09-01 18:10:00,
2013-09-01 14:15:00,87.0,68.4,29.78,North,353,0.0,2.0,54,0.00,,CLR,0.01,457.00,VWS V14.01,2013-09-01 18:15:00,
2013-09-01 14:20:00,86.6,68.0,29.77,North,356,0.0,2.0,54,0.00,,CLR,0.01,449.00,VWS V14.01,2013-09-01 18:20:00,
2013-09-01 14:25:00,86.6,68.0,29.77,WSW,250,0.0,0.0,54,0.00,,CLR,0.01,498.00,VWS V14.01,2013-09-01 18:25:00,
2013-09-01 14:30:00,86.6,69.1,29.77,WSW,250,0.0,2.0,56,0.00,,CLR,0.01,489.00,VWS V14.01,2013-09-01 18:30:00,
2013-09-01 14:35:00,87.0,67.3,29.77,WSW,250,0.0,0.0,52,0.00,,CLR,0.01,426.00,VWS V14.01,2013-09-01 18:35:00,
2013-09-01 14:40:00,87.2,70.6,29.77,ENE,59,0.0,2.0,58,0.00,,CLR,0.01,519.00,VWS V14.01,2013-09-01 18:40:00,
2013-09-01 14:45:00,87.6,70.5,29.77,East,88,0.0,1.0,57,0.00,,CLR,0.01,493.00,VWS V14.01,2013-09-01 18:45:00,
2013-09-01 14:50:00,87.6,69.4,29.77,East,88,0.0,1.0,55,0.00,,CLR,0.01,477.00,VWS V14.01,2013-09-01 18:50:00,
2013-09-01 14:55:00,87.2,69.6,29.77,ENE,68,2.0,2.0,56,0.00,,CLR,0.01,380.00,VWS V14.01,2013-09-01 18:55:00,
2013-09-01 15:00:00,87.0,69.9,29.77,ESE,104,0.0,2.0,57,0.00,,CLR,0.01,343.00,VWS V14.01,2013-09-01 19:00:00,
2013-09-01 15:05:00,86.8,70.3,29.76,East,93,0.0,6.0,58,0.00,,SCT095,0.01,262.00,VWS V14.01,2013-09-01 19:05:00,
2013-09-01 15:10:00,86.6,71.6,29.76,ENE,66,0.0,6.0,61,0.00,,SCT095,0.01,222.00,VWS V14.01,2013-09-01 19:10:00,
2013-09-01 15:16:00,86.2,67.6,29.76,East,93,0.0,3.0,54,0.00,,SCT095,0.01,246.00,VWS V14.01,2013-09-01 19:16:00,
2013-09-01 15:21:00,86.2,70.2,29.76,East,93,0.0,3.0,59,0.00,,SCT095,0.01,334.00,VWS V14.01,2013-09-01 19:21:00,
2013-09-01 15:26:00,86.0,70.5,29.76,East,93,0.0,1.0,60,0.00,,SCT095,0.01,443.00,VWS V14.01,2013-09-01 19:26:00,
2013-09-01 15:31:00,86.4,70.4,29.76,East,92,0.0,1.0,59,0.00,,SCT095,0.01,739.00,VWS V14.01,2013-09-01 19:31:00,
2013-09-01 15:36:00,86.4,68.3,29.76,ENE,76,1.0,3.0,55,0.00,,SCT095,0.01,394.00,VWS V14.01,2013-09-01 19:36:00,
2013-09-01 15:41:00,86.6,70.1,29.76,East,97,0.0,3.0,58,0.00,,SCT095,0.01,301.00,VWS V14.01,2013-09-01 19:41:00,
2013-09-01 15:46:00,86.6,70.6,29.76,North,354,0.0,1.0,59,0.00,,SCT095,0.01,201.00,VWS V14.01,2013-09-01 19:46:00,
2013-09-01 15:51:00,86.2,71.7,29.75,NNE,18,0.0,1.0,62,0.00,,SCT095,0.01,187.00,VWS V14.01,2013-09-01 19:51:00,
2013-09-01 15:56:00,85.5,71.0,29.75,NW,318,0.0,5.0,62,0.00,,SCT095,0.01,178.00,VWS V14.01,2013-09-01 19:56:00,
2013-09-01 16:01:00,84.7,71.2,29.75,NNE,31,1.0,5.0,64,0.00,,SCT095,0.01,132.00,VWS V14.01,2013-09-01 20:01:00,
2013-09-01 16:06:00,83.7,70.7,29.75,NNE,20,0.0,0.0,65,0.00,,BKN095,0.01,118.00,VWS V14.01,2013-09-01 20:06:00,
2013-09-01 16:11:00,83.1,71.9,29.75,West,275,0.0,2.0,69,0.00,,BKN095,0.01,102.00,VWS V14.01,2013-09-01 20:11:00,
2013-09-01 16:16:00,82.6,71.4,29.75,West,275,0.0,1.0,69,0.00,,BKN095,0.01,107.00,VWS V14.01,2013-09-01 20:16:00,
2013-09-01 16:21:00,82.2,69.7,29.76,West,275,0.0,1.0,66,0.00,,BKN095,0.01,97.00,VWS V14.01,2013-09-01 20:21:00,
2013-09-01 16:27:00,82.2,70.6,29.76,NNW,329,0.0,3.0,68,0.00,,BKN095,0.01,97.00,VWS V14.01,2013-09-01 20:27:00,
2013-09-01 16:32:00,82.0,70.4,29.76,NNW,346,0.0,3.0,68,0.00,,BKN095,0.01,113.00,VWS V14.01,2013-09-01 20:32:00,
2013-09-01 16:37:00,81.8,70.2,29.76,NNW,346,0.0,0.0,68,0.00,,BKN095,0.01,107.00,VWS V14.01,2013-09-01 20:37:00,
2013-09-01 16:42:00,81.8,71.1,29.76,NE,52,0.0,0.0,70,0.00,,BKN095,0.01,102.00,VWS V14.01,2013-09-01 20:42:00,
2013-09-01 16:47:00,81.6,71.3,29.76,ESE,116,0.0,1.0,71,0.00,,BKN095,0.01,93.00,VWS V14.01,2013-09-01 20:47:00,
2013-09-01 16:52:00,81.4,71.1,29.76,ESE,116,0.0,1.0,71,0.00,,BKN095,0.01,91.00,VWS V14.01,2013-09-01 20:52:00,
2013-09-01 16:57:00,81.0,73.1,29.76,ESE,116,0.0,0.0,77,0.00,,BKN095,0.01,90.00,VWS V14.01,2013-09-01 20:57:00,
2013-09-01 17:02:00,80.4,73.3,29.76,SSW,210,0.0,0.0,79,0.00,,BKN095,0.01,93.00,VWS V14.01,2013-09-01 21:02:00,
2013-09-01 17:07:00,79.9,72.4,29.76,SW,216,0.0,0.0,78,0.00,,SCT100,0.01,91.00,VWS V14.01,2013-09-01 21:07:00,
2013-09-01 17:12:00,79.7,71.9,29.76,SW,216,0.0,0.0,77,0.00,,SCT100,0.01,90.00,VWS V14.01,2013-09-01 21:12:00,
2013-09-01 17:17:00,79.7,71.9,29.75,SSW,209,0.0,0.0,77,0.00,,SCT100,0.01,91.00,VWS V14.01,2013-09-01 21:17:00,
2013-09-01 17:22:00,79.9,72.1,29.75,SSE,151,0.0,1.0,77,0.00,,SCT100,0.01,104.00,VWS V14.01,2013-09-01 21:22:00,
2013-09-01 17:28:00,79.9,73.2,29.75,SSE,150,0.0,1.0,80,0.00,,SCT100,0.01,109.00,VWS V14.01,2013-09-01 21:28:00,
2013-09-01 17:33:00,79.9,73.2,29.75,SSE,150,0.0,1.0,80,0.00,,SCT100,0.01,93.00,VWS V14.01,2013-09-01 21:33:00,
2013-09-01 17:38:00,79.9,73.2,29.75,SSE,150,0.0,0.0,80,0.00,,SCT100,0.01,83.00,VWS V14.01,2013-09-01 21:38:00,
2013-09-01 17:43:00,79.7,72.6,29.75,ENE,69,0.0,1.0,79,0.00,,SCT100,0.01,77.00,VWS V14.01,2013-09-01 21:43:00,
2013-09-01 17:48:00,79.5,72.4,29.75,East,92,0.0,3.0,79,0.00,,SCT100,0.01,77.00,VWS V14.01,2013-09-01 21:48:00,
2013-09-01 17:53:00,79.3,71.5,29.75,ENE,58,0.0,3.0,77,0.00,,SCT100,0.01,76.00,VWS V14.01,2013-09-01 21:53:00,
2013-09-01 17:58:00,79.1,71.3,29.75,ENE,78,0.0,0.0,77,0.00,,SCT100,0.01,74.00,VWS V14.01,2013-09-01 21:58:00,
2013-09-01 18:03:00,79.1,71.3,29.75,East,79,0.0,0.0,77,0.00,,SCT100,0.01,69.00,VWS V14.01,2013-09-01 22:03:00,
2013-09-01 18:08:00,78.9,71.1,29.75,East,82,0.0,0.0,77,0.00,,CLR,0.01,69.00,VWS V14.01,2013-09-01 22:08:00,
2013-09-01 18:13:00,78.9,71.8,29.75,East,82,0.0,0.0,79,0.00,,CLR,0.01,65.00,VWS V14.01,2013-09-01 22:13:00,
2013-09-01 18:18:00,78.9,72.6,29.75,East,82,0.0,0.0,81,0.00,,CLR,0.01,65.00,VWS V14.01,2013-09-01 22:18:00,
2013-09-01 18:24:00,78.8,72.5,29.75,East,80,0.0,0.0,81,0.00,,CLR,0.01,79.00,VWS V14.01,2013-09-01 22:24:00,
2013-09-01 18:29:00,78.6,71.9,29.75,East,80,0.0,2.0,80,0.00,,CLR,0.01,74.00,VWS V14.01,2013-09-01 22:29:00,
2013-09-01 18:34:00,78.6,71.6,29.75,East,80,0.0,0.0,79,0.00,,CLR,0.01,76.00,VWS V14.01,2013-09-01 22:34:00,
2013-09-01 18:39:00,78.6,71.9,29.75,East,80,0.0,0.0,80,0.00,,CLR,0.01,76.00,VWS V14.01,2013-09-01 22:39:00,
2013-09-01 18:44:00,78.6,71.9,29.75,East,80,0.0,0.0,80,0.00,,CLR,0.01,81.00,VWS V14.01,2013-09-01 22:44:00,
2013-09-01 18:49:00,78.6,71.9,29.75,East,99,0.0,3.0,80,0.00,,CLR,0.01,67.00,VWS V14.01,2013-09-01 22:49:00,
2013-09-01 18:54:00,78.4,72.1,29.75,ESE,104,0.0,0.0,81,0.00,,CLR,0.01,39.00,VWS V14.01,2013-09-01 22:54:00,
2013-09-01 18:59:00,78.4,72.1,29.75,ESE,104,0.0,0.0,81,0.00,,CLR,0.01,32.00,VWS V14.01,2013-09-01 22:59:00,
2013-09-01 19:04:00,78.2,71.9,29.75,SE,131,0.0,0.0,81,0.00,,CLR,0.01,33.00,VWS V14.01,2013-09-01 23:04:00,
2013-09-01 19:09:00,78.0,71.7,29.75,SE,133,0.0,3.0,81,0.00,,CLR,0.01,35.00,VWS V14.01,2013-09-01 23:09:00,
2013-09-01 19:14:00,77.6,71.3,29.75,SE,143,0.0,0.0,81,0.00,,CLR,0.01,37.00,VWS V14.01,2013-09-01 23:14:00,
2013-09-01 19:19:00,77.6,71.3,29.75,SE,131,0.0,3.0,81,0.00,,CLR,0.01,62.00,VWS V14.01,2013-09-01 23:19:00,
2013-09-01 19:24:00,77.6,71.3,29.75,SE,131,0.0,0.0,81,0.00,,CLR,0.01,63.00,VWS V14.01,2013-09-01 23:24:00,
2013-09-01 19:30:00,77.6,71.3,29.75,SE,131,0.0,0.0,81,0.00,,CLR,0.01,53.00,VWS V14.01,2013-09-01 23:30:00,
2013-09-01 19:35:00,77.6,71.3,29.75,SE,131,0.0,0.0,81,0.00,,CLR,0.01,32.00,VWS V14.01,2013-09-01 23:35:00,
2013-09-01 19:40:00,77.6,71.7,29.75,SE,131,0.0,0.0,82,0.00,,CLR,0.01,25.00,VWS V14.01,2013-09-01 23:40:00,
2013-09-01 19:45:00,77.5,71.6,29.75,SE,131,0.0,0.0,82,0.00,,CLR,0.01,23.00,VWS V14.01,2013-09-01 23:45:00,
2013-09-01 19:50:00,77.3,71.7,29.75,SE,131,0.0,0.0,83,0.00,,CLR,0.01,9.00,VWS V14.01,2013-09-01 23:50:00,
2013-09-01 19:55:00,77.1,71.5,29.75,SE,131,0.0,0.0,83,0.00,,CLR,0.01,5.00,VWS V14.01,2013-09-01 23:55:00,
2013-09-01 20:00:00,77.1,71.5,29.75,SE,131,0.0,0.0,83,0.00,,CLR,0.01,0.00,VWS V14.01,2013-09-02 00:00:00,
2013-09-01 20:05:00,76.9,71.3,29.76,SE,131,0.0,0.0,83,0.00,,CLR,0.01,0.00,VWS V14.01,2013-09-02 00:05:00,
2013-09-01 20:10:00,76.7,71.5,29.76,SE,131,0.0,0.0,84,0.00,,CLR,0.01,0.00,VWS V14.01,2013-09-02 00:10:00,
2013-09-01 20:15:00,76.6,71.4,29.76,SE,131,0.0,0.0,84,0.00,,CLR,0.01,0.00,VWS V14.01,2013-09-02 00:15:00,
2013-09-01 20:20:00,76.4,71.2,29.77,SE,131,0.0,0.0,84,0.00,,CLR,0.01,0.00,VWS V14.01,2013-09-02 00:20:00,
2013-09-01 20:25:00,76.4,71.6,29.77,SE,131,0.0,0.0,85,0.00,,CLR,0.01,0.00,VWS V14.01,2013-09-02 00:25:00,
2013-09-01 20:30:00,76.2,71.4,29.77,SE,131,0.0,0.0,85,0.00,,CLR,0.01,0.00,VWS V14.01,2013-09-02 00:30:00,
2013-09-01 20:36:00,76.0,71.5,29.77,SE,131,0.0,0.0,86,0.00,,CLR,0.01,0.00,VWS V14.01,2013-09-02 00:36:00,
2013-09-01 20:41:00,75.8,71.7,29.77,SE,131,0.0,0.0,87,0.00,,CLR,0.01,0.00,VWS V14.01,2013-09-02 00:41:00,
2013-09-01 20:46:00,75.7,71.6,29.77,SE,131,0.0,0.0,87,0.00,,CLR,0.01,0.00,VWS V14.01,2013-09-02 00:46:00,
2013-09-01 20:51:00,75.5,71.4,29.77,SE,131,0.0,0.0,87,0.00,,CLR,0.01,0.00,VWS V14.01,2013-09-02 00:51:00,
2013-09-01 20:56:00,75.3,71.5,29.77,SE,131,0.0,0.0,88,0.00,,CLR,0.01,0.00,VWS V14.01,2013-09-02 00:56:00,
2013-09-01 21:01:00,75.1,71.3,29.77,SE,131,0.0,0.0,88,0.00,,CLR,0.01,0.00,VWS V14.01,2013-09-02 01:01:00,
2013-09-01 21:06:00,75.0,71.2,29.78,SE,131,0.0,0.0,88,0.00,,SCT110,0.01,0.00,VWS V14.01,2013-09-02 01:06:00,
2013-09-01 21:11:00,75.0,71.5,29.78,SE,131,0.0,0.0,89,0.00,,SCT110,0.01,0.00,VWS V14.01,2013-09-02 01:11:00,
2013-09-01 21:16:00,74.8,71.3,29.78,SE,131,0.0,0.0,89,0.00,,SCT110,0.01,0.00,VWS V14.01,2013-09-02 01:16:00,
2013-09-01 21:21:00,74.8,71.3,29.78,SE,131,0.0,0.0,89,0.00,,SCT110,0.01,0.00,VWS V14.01,2013-09-02 01:21:00,
2013-09-01 21:26:00,74.8,71.7,29.78,SE,131,0.0,0.0,90,0.00,,SCT110,0.01,0.00,VWS V14.01,2013-09-02 01:26:00,
2013-09-01 21:31:00,74.8,71.7,29.78,SE,131,0.0,0.0,90,0.00,,SCT110,0.01,0.00,VWS V14.01,2013-09-02 01:31:00,
2013-09-01 21:36:00,74.8,71.7,29.79,SE,131,0.0,0.0,90,0.00,,SCT110,0.01,0.00,VWS V14.01,2013-09-02 01:36:00,
2013-09-01 21:42:00,74.8,71.7,29.79,SE,131,0.0,0.0,90,0.00,,SCT110,0.01,0.00,VWS V14.01,2013-09-02 01:42:00,
2013-09-01 21:47:00,74.6,71.5,29.79,SE,131,0.0,0.0,90,0.00,,SCT110,0.01,0.00,VWS V14.01,2013-09-02 01:47:00,
2013-09-01 21:52:00,74.4,71.3,29.79,SE,131,0.0,0.0,90,0.00,,SCT110,0.01,0.00,VWS V14.01,2013-09-02 01:52:00,
2013-09-01 21:57:00,74.3,71.2,29.79,SE,131,0.0,0.0,90,0.00,,SCT110,0.01,0.00,VWS V14.01,2013-09-02 01:57:00,
2013-09-01 22:02:00,74.3,71.5,29.79,SE,131,0.0,0.0,91,0.00,,SCT110,0.01,0.00,VWS V14.01,2013-09-02 02:02:00,
2013-09-01 22:07:00,74.1,71.3,29.79,SE,131,0.0,0.0,91,0.00,,OVC110,0.01,0.00,VWS V14.01,2013-09-02 02:07:00,
2013-09-01 22:12:00,73.9,71.1,29.79,SE,131,0.0,0.0,91,0.00,,OVC110,0.01,0.00,VWS V14.01,2013-09-02 02:12:00,
2013-09-01 22:17:00,73.9,71.1,29.79,SE,131,0.0,0.0,91,0.00,,OVC110,0.01,0.00,VWS V14.01,2013-09-02 02:17:00,
2013-09-01 22:22:00,73.9,71.1,29.79,SE,131,0.0,0.0,91,0.00,,OVC110,0.01,0.00,VWS V14.01,2013-09-02 02:22:00,
2013-09-01 22:27:00,73.7,70.9,29.79,SE,131,0.0,0.0,91,0.00,,OVC110,0.01,0.00,VWS V14.01,2013-09-02 02:27:00,
2013-09-01 22:32:00,73.7,70.9,29.79,SE,131,0.0,0.0,91,0.00,,OVC110,0.01,0.00,VWS V14.01,2013-09-02 02:32:00,
2013-09-01 22:37:00,73.6,70.8,29.79,SE,131,0.0,0.0,91,0.00,,OVC110,0.01,0.00,VWS V14.01,2013-09-02 02:37:00,
2013-09-01 22:42:00,73.6,70.8,29.79,SE,131,0.0,0.0,91,0.00,,OVC110,0.01,0.00,VWS V14.01,2013-09-02 02:42:00,
2013-09-01 22:48:00,73.6,70.8,29.80,SE,131,0.0,0.0,91,0.00,,OVC110,0.01,0.00,VWS V14.01,2013-09-02 02:48:00,
2013-09-01 22:53:00,73.4,70.6,29.80,SE,131,0.0,0.0,91,0.00,,OVC110,0.01,0.00,VWS V14.01,2013-09-02 02:53:00,
2013-09-01 22:58:00,73.4,70.6,29.80,SE,131,0.0,0.0,91,0.00,,OVC110,0.01,0.00,VWS V14.01,2013-09-02 02:58:00,
2013-09-01 23:03:00,73.4,70.9,29.79,SE,131,0.0,0.0,92,0.00,,OVC110,0.01,0.00,VWS V14.01,2013-09-02 03:03:00,
2013-09-01 23:08:00,73.4,70.9,29.79,SE,131,0.0,0.0,92,0.00,,OVC100,0.01,0.00,VWS V14.01,2013-09-02 03:08:00,
2013-09-01 23:13:00,73.4,70.9,29.79,SE,131,0.0,0.0,92,0.00,,OVC100,0.01,0.00,VWS V14.01,2013-09-02 03:13:00,
2013-09-01 23:18:00,73.4,70.9,29.78,SE,131,0.0,0.0,92,0.00,,OVC100,0.01,0.00,VWS V14.01,2013-09-02 03:18:00,
2013-09-01 23:23:00,73.4,70.9,29.78,SE,131,0.0,0.0,92,0.00,,OVC100,0.01,0.00,VWS V14.01,2013-09-02 03:23:00,
2013-09-01 23:28:00,73.2,70.7,29.78,SE,131,0.0,0.0,92,0.00,,OVC100,0.01,0.00,VWS V14.01,2013-09-02 03:28:00,
2013-09-01 23:33:00,73.0,70.5,29.78,SE,131,0.0,0.0,92,0.00,,OVC100,0.01,0.00,VWS V14.01,2013-09-02 03:33:00,
2013-09-01 23:38:00,73.0,70.5,29.78,SE,131,0.0,0.0,92,0.00,,OVC100,0.01,0.00,VWS V14.01,2013-09-02 03:38:00,
2013-09-01 23:43:00,72.9,70.4,29.78,SE,131,0.0,0.0,92,0.00,,OVC100,0.01,0.00,VWS V14.01,2013-09-02 03:43:00,
2013-09-01 23:48:00,72.9,70.4,29.78,SE,131,0.0,0.0,92,0.00,,OVC100,0.01,0.00,VWS V14.01,2013-09-02 03:48:00,
2013-09-01 23:53:00,72.7,70.2,29.78,SE,131,0.0,0.0,92,0.00,,OVC100,0.01,0.00,VWS V14.01,2013-09-02 03:53:00,
2013-09-01 23:59:00,72.5,70.1,29.78,SE,131,0.0,0.0,92,0.00,,OVC100,0.01,0.00,VWS V14.01,2013-09-02 03:59:00,